This demonstration page uses our WeatherBlox Daily Observations layout. Learn more.

Left ArrowRight Arrow

39.51506, -84.39828

Hourly Observations for March 24, 2017

Temp ( °F °C ) Dew Point ( °F °C ) Humidity (%) Winds ( mph kmh ) Pressure ( in mb ) Visibility ( mi km ) Precip ( " mm )
12:15 am 00:15 Partly Cloudy 55 12.5 23 -5.1 29 29 SSE 3 6 30.21 1023 10 16 0.00 0.00
12:35 am 00:35 Clear 52 11.1 28 -2.4 39 39 Calm 30.21 1023 10 16 0.00 0.00
12:55 am 00:55 Partly Cloudy 49 9.5 34 1.3 57 57 Calm 30.21 1023 10 16 0.00 0.00
1:15 am 01:15 Partly Cloudy 48 8.8 35 1.6 61 61 Calm 30.21 1023 10 16 0.00 0.00
1:35 am 01:35 Clear 49 9.6 33 0.8 55 55 S 6 9 30.18 1022 10 16 0.00 0.00
1:55 am 01:55 Partly Cloudy 49 9.6 32 -0.2 51 51 SSW 6 9 30.18 1022 10 16 0.00 0.00
2:15 am 02:15 Clear 49 9.6 32 -0.2 51 51 SSW 5 7 30.18 1022 10 16 0.00 0.00
2:35 am 02:35 Clear 49 9.6 29 -1.7 46 46 SSW 5 7 30.15 1021 10 16 0.00 0.00
2:55 am 02:55 Clear 49 9.6 32 0 52 52 SSW 3 6 30.15 1021 10 16 0.00 0.00
3:15 am 03:15 Clear 49 9.6 32 -0.2 51 51 S 6 9 30.15 1021 10 16 0.00 0.00
3:35 am 03:35 Clear 54 12.3 34 0.9 46 46 SSW 8 13 30.15 1021 10 16 0.00 0.00
3:55 am 03:55 Clear 55 12.5 32 0 43 43 S 10 17 30.15 1021 10 16 0.00 0.00
4:15 am 04:15 Clear 55 12.5 33 0.5 44 44 S 12 19 30.15 1021 10 16 0.00 0.00
4:35 am 04:35 Clear 55 12.5 33 0.7 45 45 S 9 15 30.15 1021 10 16 0.00 0.00
4:55 am 04:55 Clear 55 12.5 34 1.1 46 46 S 10 17 30.15 1021 10 16 0.00 0.00
5:15 am 05:15 Clear 55 12.5 34 1.2 46 46 S 9 15 30.15 1021 10 16 0.00 0.00
5:35 am 05:35 Clear 55 12.5 35 1.5 47 47 S 10 17 30.15 1021 10 16 0.00 0.00
5:55 am 05:55 Clear 55 12.5 35 1.7 48 48 S 8 13 30.15 1021 10 16 0.00 0.00
6:15 am 06:15 Clear 55 12.5 36 2 49 49 S 8 13 30.15 1021 10 16 0.00 0.00
6:35 am 06:35 Clear 55 12.6 36 2.1 49 49 S 10 17 30.18 1022 10 16 0.00 0.00
6:55 am 06:55 Clear 55 12.5 36 2.2 50 50 S 9 15 30.18 1022 10 16 0.00 0.00
7:15 am 07:15 Clear 55 12.5 37 2.5 51 51 S 10 17 30.18 1022 10 16 0.00 0.00
7:35 am 07:35 Sunny 55 12.5 37 2.6 51 51 S 10 17 30.18 1022 10 16 0.00 0.00
7:55 am 07:55 Sunny 55 12.5 37 2.5 51 51 S 12 19 30.18 1022 10 16 0.00 0.00
8:15 am 08:15 Sunny 55 13 37 2.9 51 51 S 9 15 30.18 1022 10 16 0.00 0.00
8:35 am 08:35 Sunny 57 13.8 39 3.7 51 51 S 12 19 30.18 1022 10 16 0.00 0.00
8:55 am 08:55 Sunny 57 13.8 38 3.6 50 50 S 13 20 30.21 1023 10 16 0.00 0.00
9:15 am 09:15 Sunny 57 13.8 38 3.5 50 50 S 14 22 30.21 1023 10 16 0.00 0.00
9:35 am 09:35 Sunny 57 13.8 38 3.5 50 50 S 14 22 30.21 1023 10 16 0.00 0.00
9:55 am 09:55 Sunny 59 15.2 40 4.5 49 49 S 10 17 30.21 1023 10 16 0.00 0.00
10:15 am 10:15 Sunny 60 15.3 40 4.5 49 49 S 12 19 30.21 1023 10 16 0.00 0.00
10:35 am 10:35 Partly Cloudy 60 15.3 41 5 50 50 SSW 8 13 30.24 1024 10 16 0.00 0.00
10:55 am 10:55 Partly Cloudy 60 15.3 41 4.8 50 50 S 8 13 30.24 1024 10 16 0.00 0.00
11:15 am 11:15 Sunny 62 16.4 41 5.1 47 47 S 8 13 30.24 1024 10 16 0.00 0.00
11:35 am 11:35 Partly Cloudy 62 16.8 42 5.8 48 48 SSW 14 22 30.24 1024 10 16 0.00 0.00
11:55 am 11:55 Partly Cloudy 64 18 44 6.9 48 48 S 15 24 30.18 1022 10 16 0.00 0.00
12:15 pm 12:15 Partly Cloudy 64 18 45 7.2 49 49 SSW 13 20 30.18 1022 10 16 0.00 0.00
12:35 pm 12:35 Partly Cloudy 69 20.5 47 8.4 46 46 SSW 12 19 30.18 1022 10 16 0.00 0.00
12:55 pm 12:55 Mostly Cloudy 69 20.8 46 7.9 44 44 SSW 16 26 30.15 1021 10 16 0.00 0.00
1:15 pm 13:15 Partly Cloudy 71 21.6 46 7.8 41 41 SSW 20 31 30.15 1021 10 16 0.00 0.00
1:35 pm 13:35 Partly Cloudy 74 23.6 48 9.1 40 40 SSW 15 24 30.15 1021 10 16 0.00 0.00
1:55 pm 13:55 Partly Cloudy 74 23.6 47 8.5 38 38 S 17 28 30.15 1021 10 16 0.00 0.00
2:15 pm 14:15 Partly Cloudy 74 23.6 46 8 37 37 SSW 17 28 30.12 1020 10 16 0.00 0.00
2:35 pm 14:35 Sunny 74 23.6 46 7.9 37 37 S 17 28 30.12 1020 10 16 0.00 0.00
2:55 pm 14:55 Mostly Cloudy 74 23.6 47 8.4 38 38 SSW 15 24 30.12 1020 10 16 0.00 0.00
3:15 pm 15:15 Mostly Cloudy 77 25 48 8.8 36 36 SSW 20 31 30.12 1020 10 16 0.00 0.00
3:35 pm 15:35 Mostly Cloudy 74 23.6 47 8.5 38 38 SSW 17 28 30.09 1019 10 16 0.00 0.00
3:55 pm 15:55 Partly Cloudy 77 24.9 48 8.7 36 36 SSW 15 24 30.09 1019 10 16 0.00 0.00
4:15 pm 16:15 Partly Cloudy 77 25.1 48 9.1 36 36 SSW 16 26 30.09 1019 10 16 0.00 0.00
4:35 pm 16:35 Partly Cloudy 74 23.6 47 8.2 37 37 S 16 26 30.09 1019 10 16 0.00 0.00
4:55 pm 16:55 Partly Cloudy 77 25 47 8.6 35 35 SSW 20 31 30.09 1019 10 16 0.00 0.00
5:15 pm 17:15 Sunny 74 23.6 46 8 37 37 S 18 30 30.06 1018 10 16 0.00 0.00
5:35 pm 17:35 Sunny 75 23.7 46 8 37 37 S 17 28 30.06 1018 10 16 0.00 0.00
5:55 pm 17:55 Sunny 74 23.6 47 8.2 37 37 SSW 15 24 30.06 1018 10 16 0.00 0.00
6:15 pm 18:15 Partly Cloudy 74 23.6 47 8.5 38 38 S 14 22 30.06 1018 10 16 0.00 0.00
6:35 pm 18:35 Partly Cloudy 74 23.6 48 9 40 40 SSW 18 30 30.06 1018 10 16 0.00 0.00
6:55 pm 18:55 Partly Cloudy 74 23.6 48 9.1 40 40 SSW 16 26 30.06 1018 10 16 0.00 0.00
7:15 pm 19:15 Sunny 74 23.6 49 9.6 41 41 SSW 13 20 30.06 1018 10 16 0.00 0.00
7:35 pm 19:35 Partly Cloudy 74 23.6 50 9.8 42 42 SSW 15 24 30.06 1018 10 16 0.00 0.00
7:55 pm 19:55 Partly Cloudy 73 22.9 49 9.6 43 43 SSW 13 20 30.06 1018 10 16 0.00 0.00
8:15 pm 20:15 Partly Cloudy 72 22.3 49 9.2 43 43 S 13 20 30.09 1019 10 16 0.00 0.00
8:35 pm 20:35 Clear 70 21.3 48 8.7 45 45 SSW 13 20 30.09 1019 10 16 0.00 0.00
8:55 pm 20:55 Clear 70 21.1 47 8.6 45 45 S 12 19 30.09 1019 10 16 0.00 0.00
9:15 pm 21:15 Clear 69 20.8 48 9 47 47 S 10 17 30.09 1019 10 16 0.00 0.00
9:35 pm 21:35 Clear 69 20.8 49 9.2 48 48 SSW 8 13 30.09 1019 10 16 0.00 0.00
9:55 pm 21:55 Clear 69 20.8 51 10.5 52 52 SSW 9 15 30.09 1019 10 16 0.00 0.00
10:15 pm 22:15 Clear 69 20.8 51 10.7 53 53 SSW 7 11 30.09 1019 10 16 0.00 0.00
10:35 pm 22:35 Clear 69 20.8 52 11 54 54 SSW 7 11 30.12 1020 10 16 0.00 0.00
10:55 pm 22:55 Clear 67 19.5 50 10.2 55 55 SSW 7 11 30.12 1020 10 16 0.00 0.00
11:15 pm 23:15 Mostly Cloudy 64 18 50 9.8 59 59 SSW 7 11 30.12 1020 10 16 0.00 0.00
11:35 pm 23:35 Cloudy 64 18 49 9.5 58 58 SSW 6 9 30.12 1020 10 16 0.00 0.00
11:55 pm 23:55 Cloudy 67 19.5 50 10.2 55 55 SSW 6 9 30.12 1020 10 16 0.00 0.00

Powered by AerisWeather